Total_Precipitation_Accumulation
0.00 0.01 0.01 0.01 0.02 0.02 0.04 0.06 0.10 0.13 0.11 0.14 0.27 0.53 0.79 0.89 1.16 1.13 1.15 1.31 1.46 1.61 1.91 2.33 2.64 3.19 3.81 4.18 4.57 4.72 4.72 4.61 4.39 3.99 3.66 3.41 3.19 3.01 2.76 2.58 2.51 2.39 2.26 2.40
0.01 0.03 0.02 0.02 0.02 0.03 0.05 0.07 0.10 0.15 0.15 0.20 0.37 0.59 0.89 0.90 0.99 1.04 0.96 0.99 1.18 1.55 1.81 2.33 2.63 2.85 3.32 3.83 4.29 4.59 4.73 4.61 4.22 3.81 3.59 3.44 3.38 3.01 2.72 2.68 2.75 2.58 2.57 2.60
0.02 0.02 0.02 0.02 0.02 0.04 0.06 0.07 0.10 0.10 0.14 0.27 0.40 0.80 1.07 0.97 0.92 0.94 0.93 0.99 1.17 1.63 2.07 2.33 2.53 2.69 2.98 3.37 3.68 3.80 3.95 3.91 3.76 3.77 3.77 3.68 3.63 3.17 3.05 3.04 3.02 2.83 2.80 2.79
0.02 0.02 0.02 0.04 0.05 0.05 0.08 0.07 0.06 0.07 0.14 0.35 0.40 0.88 1.31 1.16 1.02 1.06 1.12 1.07 1.35 1.68 1.71 1.87 2.18 2.50 2.68 2.91 3.26 3.49 3.55 3.50 3.41 3.50 3.54 3.40 3.19 3.01 3.11 3.37 3.33 3.05 2.81 2.63
0.03 0.03 0.04 0.05 0.04 0.05 0.07 0.06 0.06 0.09 0.16 0.33 0.43 0.66 1.20 1.25 1.25 1.14 1.16 1.28 1.49 1.52 1.46 1.57 1.77 2.09 2.21 2.52 2.81 3.06 3.32 3.41 3.36 3.40 3.32 3.33 3.20 3.19 3.22 3.17 3.14 2.90 2.68 2.34
0.04 0.04 0.04 0.03 0.03 0.04 0.05 0.07 0.12 0.19 0.31 0.66 0.53 0.54 1.00 1.19 1.03 0.97 1.08 1.11 1.30 1.30 1.31 1.49 1.65 1.88 2.01 2.16 2.28 2.41 2.63 2.91 3.08 3.13 3.11 3.14 3.07 3.05 2.97 2.86 2.72 2.50 2.33 2.05
0.09 0.10 0.08 0.05 0.05 0.06 0.06 0.10 0.40 0.75 0.98 1.03 0.56 0.60 1.06 0.93 0.74 0.76 0.95 1.00 1.06 1.03 1.01 1.23 1.37 1.48 1.62 1.75 1.85 1.97 2.17 2.50 2.67 2.67 2.66 2.77 2.81 2.83 2.75 2.69 2.53 2.31 2.07 1.79
0.16 0.21 0.12 0.07 0.07 0.08 0.08 0.10 0.35 0.63 0.76 0.83 0.68 1.02 1.46 0.98 0.76 0.81 0.85 0.86 0.83 0.80 0.78 0.93 1.14 1.35 1.42 1.46 1.58 1.73 1.95 2.18 2.28 2.24 2.37 2.57 2.64 2.73 2.61 2.63 2.40 2.15 1.94 1.82
0.11 0.11 0.08 0.07 0.11 0.11 0.09 0.09 0.15 0.29 0.38 0.61 0.85 1.14 1.19 0.74 0.65 0.75 0.77 0.78 0.85 0.81 0.75 0.82 0.90 1.07 1.13 1.19 1.31 1.46 1.81 2.09 2.19 2.23 2.37 2.46 2.54 2.52 2.42 2.33 2.17 1.97 1.96 1.90
0.04 0.06 0.08 0.07 0.09 0.11 0.10 0.11 0.17 0.23 0.38 0.61 0.82 1.11 1.26 0.89 0.72 0.53 0.49 0.54 0.53 0.53 0.54 0.61 0.66 0.77 0.89 1.10 1.36 1.52 1.66 1.95 2.07 2.09 2.16 2.19 2.35 2.31 2.19 2.13 1.97 1.81 1.71 1.75
0.04 0.04 0.07 0.08 0.11 0.13 0.13 0.12 0.14 0.18 0.22 0.42 0.83 1.05 0.84 0.70 0.59 0.54 0.51 0.55 0.47 0.40 0.42 0.49 0.62 0.76 0.93 1.08 1.24 1.34 1.40 1.56 1.71 1.81 1.98 1.96 1.95 2.05 2.11 1.96 1.76 1.70 1.66 1.70
0.04 0.04 0.06 0.13 0.18 0.16 0.14 0.12 0.13 0.18 0.18 0.26 0.48 0.70 0.55 0.61 0.61 0.52 0.55 0.60 0.61 0.56 0.50 0.55 0.72 0.89 1.01 1.14 1.16 1.17 1.23 1.37 1.52 1.70 1.90 1.97 1.98 2.02 2.00 1.84 1.68 1.65 1.66 1.73
0.05 0.06 0.11 0.28 0.40 0.27 0.16 0.13 0.13 0.14 0.12 0.20 0.41 0.65 0.46 0.41 0.50 0.65 0.90 1.07 0.86 0.68 0.63 0.73 0.81 0.84 0.87 0.94 1.03 1.01 1.03 1.20 1.37 1.60 1.93 2.09 2.09 2.03 1.95 1.77 1.57 1.53 1.58 1.70
0.08 0.06 0.10 0.30 0.43 0.36 0.26 0.17 0.13 0.11 0.14 0.17 0.26 0.52 0.48 0.47 0.52 0.68 0.86 0.81 0.80 0.75 0.69 0.80 0.81 0.88 0.87 0.83 0.91 0.90 0.95 1.05 1.27 1.47 1.67 1.79 1.70 1.66 1.67 1.60 1.51 1.46 1.50 1.57
0.12 0.08 0.07 0.12 0.21 0.24 0.24 0.22 0.18 0.15 0.12 0.22 0.26 0.37 0.45 0.48 0.61 0.78 0.92 0.92 0.88 0.72 0.63 0.70 0.70 0.76 0.79 0.80 0.87 0.82 0.80 0.85 0.99 1.17 1.30 1.44 1.44 1.42 1.41 1.47 1.52 1.54 1.63 1.63
0.18 0.18 0.14 0.16 0.19 0.24 0.27 0.25 0.19 0.13 0.12 0.16 0.24 0.38 0.50 0.57 0.67 0.74 0.71 0.65 0.59 0.55 0.45 0.43 0.60 0.69 0.65 0.64 0.67 0.62 0.68 0.81 0.95 1.05 1.16 1.37 1.49 1.52 1.52 1.55 1.64 1.68 1.69 1.69
0.24 0.27 0.26 0.25 0.24 0.25 0.34 0.33 0.24 0.15 0.14 0.20 0.32 0.49 0.65 0.55 0.55 0.62 0.63 0.61 0.57 0.55 0.40 0.34 0.41 0.56 0.55 0.56 0.57 0.67 0.80 0.93 1.05 1.18 1.32 1.51 1.61 1.69 1.70 1.66 1.75 1.72 1.72 1.76
0.40 0.41 0.33 0.31 0.42 0.51 0.37 0.30 0.29 0.29 0.26 0.28 0.40 0.42 0.56 0.56 0.61 0.73 0.73 0.71 0.56 0.49 0.39 0.35 0.36 0.41 0.48 0.55 0.62 0.76 1.04 1.25 1.29 1.43 1.61 1.72 1.83 1.79 1.77 1.76 1.78 1.85 1.92 1.94
0.33 0.49 0.47 0.47 0.60 0.52 0.44 0.32 0.36 0.41 0.54 0.56 0.64 0.61 0.56 0.56 0.66 0.75 0.65 0.57 0.58 0.47 0.43 0.42 0.41 0.48 0.57 0.62 0.66 0.87 1.10 1.34 1.47 1.53 1.66 1.82 1.92 1.97 1.99 2.01 1.96 2.00 2.07 2.02
0.35 0.50 0.62 0.59 0.74 0.73 0.61 0.48 0.47 0.58 1.03 0.86 0.79 0.81 0.69 0.64 0.77 0.83 0.79 0.72 0.66 0.58 0.54 0.53 0.55 0.63 0.77 0.87 0.92 1.06 1.17 1.31 1.48 1.56 1.68 1.86 2.08 2.14 2.17 2.29 2.34 2.27 2.23 2.11
0.64 0.71 0.74 0.74 0.80 0.87 0.74 0.68 0.71 1.11 1.39 1.08 0.91 0.87 0.83 0.92 0.94 0.90 0.80 0.81 0.74 0.63 0.65 0.63 0.65 0.77 0.96 1.10 1.16 1.26 1.39 1.50 1.51 1.59 1.72 1.92 2.09 2.17 2.23 2.37 2.44 2.43 2.40 2.38
0.84 0.89 0.88 0.89 1.07 1.24 0.87 0.83 1.24 1.50 1.25 1.24 1.21 1.13 1.01 0.98 0.94 0.90 0.81 0.79 0.74 0.71 0.75 0.76 0.80 0.95 1.17 1.33 1.29 1.34 1.41 1.45 1.49 1.52 1.63 1.75 1.91 1.95 2.03 2.26 2.36 2.43 2.46 2.41
0.91 1.00 1.07 1.18 1.30 1.20 1.01 1.09 1.26 1.39 1.55 1.46 1.34 1.34 1.15 1.11 1.02 0.92 0.84 0.81 0.78 0.75 0.80 0.83 0.89 1.09 1.33 1.48 1.49 1.55 1.44 1.50 1.53 1.56 1.68 1.81 1.89 1.96 2.07 2.16 2.16 2.22 2.30 2.27
1.05 0.93 1.12 1.36 1.40 1.32 1.19 1.06 0.99 1.12 1.23 1.22 1.21 1.20 1.15 1.12 1.07 0.98 0.87 0.80 0.80 0.80 0.75 0.79 0.87 0.97 1.06 1.26 1.43 1.52 1.56 1.61 1.61 1.64 1.68 1.75 1.87 1.90 1.92 2.03 2.11 2.21 2.31 2.39
1.25 1.11 1.33 1.61 1.52 1.39 1.40 1.29 1.17 1.24 1.30 1.21 1.15 1.12 1.13 1.10 1.05 0.92 0.88 0.86 0.83 0.81 0.76 0.78 0.86 0.88 0.94 1.03 1.15 1.23 1.32 1.44 1.50 1.54 1.58 1.62 1.64 1.73 1.81 1.85 1.93 1.94 2.03 2.03
1.35 1.31 1.61 1.94 1.69 1.53 1.50 1.38 1.27 1.33 1.30 1.35 1.41 1.37 1.16 1.06 1.13 1.06 0.93 0.83 0.81 0.82 0.80 0.83 0.85 0.84 0.87 0.94 1.09 1.20 1.29 1.42 1.53 1.60 1.62 1.54 1.50 1.56 1.60 1.63 1.62 1.62 1.55 1.54